Погода в Алеховщине

Россия / Санкт-Петербург и Ленинградская область     60°24′15″N   33°51′21″E
темп.,
°C
ветер,
м/с
пор.,
м/с
влажн.,
%
обл.,
%
осадки,
мм/ч
давл.,
гПа
погр.,
м
28 июля, ср
ср2800:00+16вюв38911 0.0 1017137
03:00+15в26927 0.0 1016105
06:00+16вюв2780100 0.0 1014173
09:00+23юв2353100 0.0 1013402
12:00+27ю2337100 0.0 10111489
15:00+27ююв243474 0.0 10102304
18:00+26ююв2543100 0.1 1007265
21:00+17зюз2692100 0.4 1008152
29 июля, чт
чт2900:00+17ю2286100 0.1 100646
03:00+16вюв129399 0.1 100544
06:00+16ю159620 0.1 1004185
09:00+19юз358985 1.1 1003558
12:00+21зюз4786100 1.4 1002839
15:00+21зюз5966100 1.8 10021008
18:00+22з485738 0.0 10011065
21:00+16юз26977 0.9 1000154
30 июля, пт
пт3000:00+15юз312976 0.0 1000287
03:00+14юз312975 0.0 1000353
06:00+15юз2109747 0.0 1000316
09:00+18юз4686100 0.6 1001615
12:00+23зюз474516 0.4 10001945
15:00+19юз487444 1.3 1000829
18:00+18зюз26675 0.8 999152
21:00+15зюз1188100 1.4 99911
31 июля, сб
сб3100:00+12ю299296 0.1 999163
03:00+12ю279682 0.9 998165
06:00+12ю31195100 0.3 997413
09:00+13ю3996100 1.1 997672
12:00+14ююз389594 0.1 997560
15:00+18зюз498963 1.9 9981193
18:00+18з49790 1.3 9991042
21:00+15юз22800 1.3 100031
1 августа, вс
вс100:00+13ююз248896 0.0 100170
03:00+12ююз2293100 0.0 100134
06:00+14ю2588100 0.0 1001127
09:00+18ююз3883100 0.2 1000514
12:00+17ююз4109047 1.8 1000794
15:00+21юз586316 3.4 10001301
18:00+20зюз387233 1.2 10001163
21:00+15юз310955 2.3 1001300